Location: Wien
(48.2082°N, 16.3738°E)
Time: 15:35:18
(UTC+02:00)

NOAA 19 - Visible Passes

Search period start: 16 June 2025 00:00
Search period end: 26 June 2025 00:00
Orbit: 838 x 857 km, 99.0° (Epoch: 16 June)

Date Brightness Start Highest point End Pass type
(mag) Time Alt. Az. Time Alt. Az. Time Alt. Az.
16 Jun 5.9 22:31:10 10° S 22:36:27 50° W 22:41:48 10° NNW visible
17 Jun 5.6 22:18:20 10° S 22:23:44 63° WSW 22:29:12 10° NNW visible
18 Jun 5.3 22:05:34 10° SSE 22:11:02 79° WSW 22:16:34 10° NNW visible
18 Jun 7.6 23:50:22 10° WSW 23:52:33 12° W 23:54:44 10° WNW visible
19 Jun 5.2 21:52:53 10° SSE 21:58:21 83° ENE 22:03:53 10° NNW visible
19 Jun 7.5 23:36:24 10° SW 23:39:40 16° W 23:42:58 10° NW visible
20 Jun 5.3 21:40:17 10° SSE 21:45:42 67° ENE 21:51:11 10° N visible
20 Jun 7.2 23:22:51 10° SW 23:26:49 20° W 23:30:50 10° NW visible
21 Jun 6.9 23:09:31 10° SSW 23:14:00 26° W 23:18:32 10° NW visible
22 Jun 6.6 22:56:21 10° SSW 23:01:12 32° W 23:06:06 10° NNW visible
23 Jun 6.2 22:43:19 10° SSW 22:48:26 40° W 22:53:37 10° NNW visible
24 Jun 5.9 22:30:22 10° S 22:35:41 51° W 22:41:04 10° NNW visible
25 Jun 5.6 22:17:32 10° S 22:22:58 65° WSW 22:28:28 10° NNW visible
